Location: Ravensburg
(47.7866°N, 9.6124°E)
Time: 10:06:43
(UTC+02:00)

METEOR M2 - Pass Details

Date: 20 March 2026
Orbit: 817 x 824 km, 98.5° (Epoch: 18 April)

Event Time Altitude Azimuth Distance (km) Brightness Sun altitude
Rises 03:56:18 0° 22° (NNE) 3,373 ? -24.7°
Reaches altitude 10° 03:58:56 10° 32° (NNE) 2,435 ? -24.3°
Maximum altitude 04:03:42 31° 95° (E) 1,400 ? -23.6°
Drops below altitude 10° 04:08:26 10° 157° (SSE) 2,416 ? -22.9°
Sets 04:11:02 0° 167° (SSE) 3,343 ? -22.5°
